Pasco, WA
on Friday, December 21, 2012

Friday
Previous Day Next Day
Daily Summary
 ActualAverageRecord
Temperature
Mean Temperature °F 32°F  
Max Temperature 43°F 39°F 57°F (1994)
Min Temperature 32°F 25°F 0°F (1998)
Degree Days
Heating Degree Days 27 33  
Month to date heating degree days 491 660  
Since 1 July heating degree days 1588 1889  
Cooling Degree Days 0 0  
Month to date cooling degree days 0 0  
Year to date cooling degree days 788 710  
Moisture
Dew Point 36°F   
Average Humidity 91    
Maximum Humidity 100    
Minimum Humidity 82    
Precipitation
Precipitation 0.02 in in 0.50 in (1967)
Month to date precipitation 0.56  
Year to date precipitation 9.12  
Snow
Snow 0.00 in in in ()
Snow Depth 0.00 in   
Wind
Wind Speed 7 mph   
Max Wind Speed 15 mph   
Max Gust Speed 18 mph   
Visibility 9 miles   
Events Rain   

Key: T is trace of precipitation, MM is missing value
Source: NWS Daily Summary
Time(PST)TemperatureDew PointHumidity Pressure Visibility Wind DirectionWind SpeedGust SpeedPrecipitationEvents Conditions
12:53 AM 39.9°F 37.9°F 93% 29.88 in 10.0 miles ESE 11.5 mph - 0.00 in   Overcast
1:53 AM 41.0°F 37.0°F 86% 29.88 in 10.0 miles SE 10.4 mph - N/A   Overcast
2:53 AM 41.0°F 37.0°F 86% 29.88 in 10.0 miles SE 11.5 mph - N/A   Overcast
3:53 AM 39.9°F 37.0°F 89% 29.88 in 10.0 miles ESE 12.7 mph - N/A   Overcast
4:53 AM 39.9°F 36.0°F 86% 29.86 in 10.0 miles SE 3.5 mph - N/A   Mostly Cloudy
5:53 AM 39.0°F 36.0°F 89% 29.87 in 10.0 miles Calm Calm - N/A   Overcast
6:53 AM 37.9°F 36.0°F 93% 29.88 in 10.0 miles Calm Calm - N/A   Overcast
7:53 AM 37.9°F 36.0°F 93% 29.90 in 10.0 miles NW 3.5 mph - 0.00 in   Overcast
8:53 AM 37.9°F 36.0°F 93% 29.90 in 9.0 miles WNW 3.5 mph - 0.00 in   Overcast
9:53 AM 39.0°F 37.0°F 93% 29.90 in 10.0 miles WNW 5.8 mph - 0.00 in Rain Light Rain
10:53 AM 39.0°F 37.0°F 93% 29.88 in 10.0 miles WNW 4.6 mph - 0.00 in Rain Light Rain
11:53 AM 39.9°F 37.9°F 93% 29.86 in 10.0 miles WNW 9.2 mph - 0.01 in Rain Light Rain
12:01 PM 39.2°F 37.4°F 93% 29.85 in 10.0 miles WNW 9.2 mph - 0.00 in Rain Light Rain
12:53 PM 41.0°F 37.9°F 89% 29.83 in 10.0 miles NW 6.9 mph - 0.00 in   Mostly Cloudy
1:53 PM 42.1°F 37.9°F 85% 29.83 in 10.0 miles NNW 4.6 mph - N/A   Mostly Cloudy
2:53 PM 43.0°F 37.9°F 82% 29.83 in 10.0 miles NW 3.5 mph - N/A   Overcast
3:53 PM 41.0°F 37.0°F 86% 29.81 in 10.0 miles WNW 6.9 mph - N/A   Overcast
4:53 PM 39.9°F 36.0°F 86% 29.81 in 10.0 miles WNW 9.2 mph - N/A   Overcast
5:53 PM 39.9°F 36.0°F 86% 29.82 in 7.0 miles WNW 8.1 mph - 0.00 in   Overcast
6:53 PM 39.0°F 36.0°F 89% 29.81 in 7.0 miles Calm Calm - 0.00 in Rain Light Rain
7:53 PM 37.9°F 36.0°F 93% 29.80 in 10.0 miles WNW 4.6 mph - 0.01 in   Overcast
8:53 PM 37.9°F 36.0°F 93% 29.80 in 10.0 miles Calm Calm - 0.00 in Rain Light Rain
9:53 PM 37.0°F 36.0°F 96% 29.78 in 10.0 miles Calm Calm - 0.00 in   Mostly Cloudy
10:08 PM 35.6°F 35.6°F 100% 29.77 in 10.0 miles WNW 3.5 mph - N/A   Mostly Cloudy
10:53 PM 33.1°F 33.1°F 100% 29.79 in 8.0 miles Calm Calm - N/A   Partly Cloudy
11:53 PM 32.0°F 30.9°F 96% 29.78 in 4.0 miles Calm Calm - N/A   Clear
Moon Phase
Dec. 21 Dec. 28 Jan. 04 Jan. 11 Jan. 18
Sunrise:07:36 AM (PST) Moon Rise:12:15 PM (PST)12/21
Sunset:04:13 PM (PST) Moon Set:01:14 AM (PST)12/21

Copyright © 2014 The Weather Underground, Inc.